Location: Quail Creek Observatory
(32.9410°N, 97.1240°W)
Time: 22:40:34
(UTC-05:00)

Daily predictions for brighter satellites

Satellite Brightness Start Highest point End
(mag) Time Altitude Azimuth Time Altitude Azimuth Time Altitude Azimuth
Cosmos 1707 4.4 21:02:54 10° SSW 21:06:33 38° W 21:10:14 10° N
Cosmos 2219 Rocket 2.7 21:01:01 10° NNW 21:06:37 63° WSW 21:12:09 10° S
Cosmos 614 Rocket 4.0 21:02:58 10° S 21:08:07 66° ESE 21:13:16 10° NNE
Cosmos 2084 3.3 21:04:32 10° SSW 21:08:35 57° ESE 21:12:25 10° NE
Helios 1B rocket 3.0 21:07:15 10° NNE 21:11:05 36° E 21:14:54 10° SSE
Cosmos 1867 3.8 21:06:38 10° S 21:11:49 48° ESE 21:17:03 10° NE
Cosmos 1954 Rocket 4.3 21:07:00 10° SSW 21:12:11 73° WNW 21:17:23 10° NNE
Milstar 3 Cent rocket 3.3 21:06:30 10° W 21:12:18 59° S 21:23:34 10° ESE
USA 186 0.9 21:10:14 10° SSE 21:12:34 65° ENE 21:14:48 10° N
SL-8 R/B 3.8 21:09:35 10° NW 21:14:22 76° SW 21:19:07 10° SE
Resurs 01 Rocket 1.9 21:10:16 10° S 21:14:39 73° W 21:19:03 10° NNW
Helios 1A 3.8 21:12:23 10° SE 21:16:07 34° ENE 21:19:51 10° N
Cosmos 2333 Rocket 2.7 21:11:20 10° NNW 21:16:55 64° WSW 21:22:27 10° S
Cosmos 1850 Rocket 4.1 21:13:51 10° S 21:18:53 55° ESE 21:23:56 10° NNE
Resurs 1-3 3.9 21:16:16 10° S 21:20:38 70° W 21:25:00 10° NNW
Lacrosse 4 Rocket 4.4 21:17:48 10° WSW 21:21:08 22° WNW 21:24:33 10° N
USA 234 3.9 21:15:38 10° ENE 21:21:21 32° SE 21:27:03 10° S
ERS-1 Rocket 4.3 21:21:49 10° ESE 21:25:42 23° ENE 21:29:35 10° NNE
Meteor 2-1 Rocket 4.5 21:20:17 10° N 21:25:58 55° E 21:31:30 10° SSE
H-2A ROCKET BODY 3.0 21:25:35 10° S 21:27:22 14° SE 21:30:16 10° ESE
Cosmos 1184 Rocket 2.8 21:25:24 10° S 21:28:43 87° W 21:32:07 10° N
Meteor 2-15 Rocket 4.4 21:28:49 10° S 21:34:52 83° E 21:40:58 10° N
Cosmos 1356 Rocket 4.2 21:31:04 10° SSE 21:34:54 34° E 21:38:47 10° NNE
Cosmos 2297 Rocket 3.8 21:33:00 10° SW 21:38:12 38° WNW 21:43:27 10° N
Cosmos 1842 Rocket 3.7 21:34:28 10° N 21:38:50 73° W 21:43:09 10° S
YAOGAN 6 3.0 21:38:47 15° SE 21:41:29 44° ENE 21:45:00 10° N
H-2A R/B 4.1 21:39:27 10° E 21:41:52 13° ENE 21:44:18 10° NE
Cosmos 1741 Rocket 4.1 21:39:03 10° SSW 21:44:22 85° WNW 21:49:42 10° NNE
SEDSat Delta rocket 4.4 21:41:40 10° W 21:45:23 24° SSW 21:47:53 15° SSE
Cosmos 2263 Rocket 3.8 21:46:57 14° ESE 21:47:20 14° E 21:50:00 10° ENE
Cosmos 1605 Rocket 4.3 21:41:57 10° N 21:48:12 70° W 21:54:30 10° S
NOSS 3-4 (A) 3.9 21:41:25 10° NNW 21:48:37 85° WSW 21:55:19 14° SSE
NOSS 3-4 (C) 3.9 21:41:30 10° NNW 21:48:43 85° WSW 21:55:23 14° SSE
Meteor 1-21 Rocket 4.3 21:44:58 10° S 21:50:31 56° E 21:56:00 10° NNE
ATLAS 5 CENTAUR R/B 3.1 21:46:50 10° SW 21:51:09 42° NW 21:55:51 10° NNE
Cosmos 1818 3.9 21:46:15 10° NNW 21:51:34 52° ENE 21:55:10 20° SE
Cosmos 1726 4.1 21:49:50 10° NE 21:51:37 13° ENE 21:52:04 13° E
Cosmos 1076 Rocket 3.5 21:49:29 10° S 21:53:47 62° E 21:58:05 10° NNE
RESURS DK-1 4.4 21:52:53 10° NNE 21:55:20 15° ENE 21:56:54 13° E
Spot 1 3.9 21:53:03 14° SSE 21:56:29 86° W 22:00:40 10° NNW
Cosmos 1408 Rocket 4.0 21:55:01 20° SSE 21:57:29 39° E 22:01:30 10° NNE
Cosmos 1939 Rocket 3.6 22:00:39 10° S 22:04:25 50° W 22:08:22 10° NNW
CZ-4B DEB 2.8 22:03:01 23° S 22:04:40 64° W 22:07:38 10° NNW
Cosmos 1802 Rocket 4.2 22:02:14 10° N 22:08:12 51° E 22:11:49 24° SSE
Tiangong 1 4.0 22:09:10 10° NNW 22:10:09 11° N 22:11:08 10° NNE
Cosmos 2237 Rocket 3.8 22:06:52 10° NW 22:11:39 29° WSW 22:16:25 10° SSW
Palapa 6 Rocket 4.5 22:08:14 10° WSW 22:12:19 23° S 22:13:12 22° S
Cosmos 2221 2.6 22:08:02 10° N 22:12:25 77° W 22:15:26 20° S
Envisat 4.3 22:09:04 10° SSW 22:13:43 37° W 22:18:25 10° NNW
Cosmos 1674 3.2 22:12:58 10° SSW 22:16:38 58° W 22:20:20 10° N
SAR-Lupe-4 4.5 22:18:00 20° SSW 22:20:09 45° W 22:23:36 10° NNW
Cosmos 1603 4.4 22:14:56 10° N 22:20:11 38° ENE 22:22:24 27° ESE
GPS 2-05 Rocket1 2.3 22:21:01 10° WSW 22:24:06 76° SSE 22:24:08 76° SSE
MetOp-A 4.1 22:21:43 29° SSE 22:24:31 72° ENE 22:29:51 10° N
Cosmos 1486 Rocket 4.3 22:24:29 33° SE 22:26:12 44° ESE 22:31:12 10° NNE
ARGOS 3.3 22:24:14 32° SE 22:26:36 57° ENE 22:31:55 10° N
Cosmos 2208 Rocket 4.1 22:21:52 10° NNW 22:27:14 80° WSW 22:30:06 29° S
SPOT 5 3.2 22:26:16 35° SE 22:27:53 51° ENE 22:32:45 10° N
Cosmos 1908 3.6 22:26:05 10° NNW 22:29:54 59° W 22:31:32 31° SSW
Lacrosse 5 2.9 22:27:58 10° NNW 22:32:35 34° NE 22:34:30 26° E
KORONAS-FOTON 4.4 22:31:42 21° SSW 22:34:03 53° W 22:37:47 10° N
Cosmos 2016 Rocket 3.9 22:28:24 10° N 22:34:39 72° E 22:37:35 33° SSE
Cosmos 1766 Rocket 3.9 22:31:58 20° SSW 22:34:51 64° W 22:39:10 10° N
SPOT 1/Viking Rocket 4.0 22:35:09 36° ESE 22:36:31 45° ENE 22:41:24 10° N
SL-16 R/B 3.0 22:31:29 10° NNW 22:36:53 46° WSW 22:40:16 21° SSW
Cosmos 1242 Rocket 3.5 22:36:41 10° NNW 22:40:15 45° W 22:41:26 33° SW
Atlas Centaur 2 2.6 22:40:59 10° WSW 22:43:05 23° SW 22:43:05 23° SW
USA 245 2.9 22:44:50 78° NE 22:44:50 78° NE 22:48:37 10° N
Cosmos 1328 Rocket 3.7 22:40:31 10° N 22:44:44 52° E 22:44:57 51° E
YAOGAN 11 4.0 22:45:55 55° SSE 22:46:54 86° ENE 22:51:27 10° NNW
H-2A R/B 3.9 22:51:01 19° ENE 22:51:01 19° ENE 22:53:40 10° NNE
Cosmos 1515 Rocket 4.1 22:46:38 10° N 22:50:33 42° ENE 22:50:33 42° ENE
Cosmos 1743 Rocket 3.4 22:50:22 66° SSE 22:50:56 81° E 22:55:15 10° N
Cosmos 1151 Rocket 4.1 22:47:03 10° NNE 22:50:35 31° ENE 22:50:35 31° ENE
Delta 2 Rocket 4.1 22:48:30 10° WSW 22:54:16 88° NNW 22:58:13 21° ENE
Cosmos 2233 Rocket 4.3 22:53:02 10° N 22:58:57 46° E 23:00:00 42° ESE
Cosmos 2228 Rocket 3.0 22:54:45 10° N 22:59:20 73° E 22:59:34 71° ESE
SL-08 RB Rocket 3.7 23:00:01 62° SSW 23:00:43 77° WSW 23:05:19 10° NNW
Terra 2.6 23:02:54 36° ENE 23:02:54 36° ENE 23:07:12 10° N
ERS-1 Rocket 4.3 23:01:46 21° SW 23:04:13 33° W 23:08:45 10° NW
USA 234 3.8 22:58:05 10° NE 23:04:28 58° NW 23:10:49 10° WSW
Cosmos 468 Rocket 4.0 23:00:10 10° NNW 23:05:17 73° WSW 23:06:13 57° SSW
Meteor 1-11 4.2 23:06:01 53° S 23:07:29 80° E 23:13:18 10° N
Cosmos 1503 Rocket 4.0 23:12:35 59° E 23:12:35 59° E 23:17:21 10° NNE
Cosmos 332 Rocket 3.8 23:10:29 10° NNW 23:15:22 70° WSW 23:15:45 66° SW
Cosmos 1447 Rocket 4.4 23:14:04 53° S 23:15:39 80° E 23:22:01 10° N
Cosmos 1626 3.6 23:19:15 32° NNE 23:19:15 32° NNE 23:21:24 10° NNE
Cosmos 2058 3.3 23:21:05 60° N 23:21:05 60° N 23:24:35 10° N
H-2A R/B 2.2 23:19:43 57° SSW 23:20:35 67° WSW 23:25:59 10° NNW
Sakura Rocket 4.0 23:15:21 10° W 23:22:48 57° S 23:22:48 57° S
Cosmos 1726 4.0 23:23:51 10° NNW 23:26:41 25° W 23:26:41 25° W
Meteor 1-27 4.1 23:21:52 10° N 23:27:40 81° E 23:28:05 75° SE
Cosmos 2263 Rocket 2.5 23:28:33 37° SW 23:30:37 60° WNW 23:36:09 10° NNE
Cosmos 1300 4.3 23:27:38 10° NNW 23:30:38 31° WNW 23:30:38 31° WNW
CZ-4B R/B 4.2 23:27:25 10° NNE 23:31:26 43° ENE 23:31:26 43° ENE
RESURS DK-1 3.7 23:29:39 10° NW 23:32:49 34° W 23:32:49 34° W
Cosmos 540 Rocket 4.5 23:29:11 10° N 23:33:24 35° NE 23:33:24 35° NE
Cosmos 2285 Rocket 4.1 23:40:01 10° N 23:46:18 60° ENE 23:46:33 60° E
Cosmos 2151 4.4 23:47:34 33° WNW 23:47:34 33° WNW 23:51:20 10° NNW
deb Chang Zheng 4 4.4 23:43:35 10° N 23:46:50 49° N 23:46:50 49° N
